Location: Newark
(41.0400°S, 62.7845°W)
Time: 20:34:33
(UTC+00:00)

Tiros 1 - Pass Details

Date: 09 December 2021
Orbit: 630 x 663 km, 48.4° (Epoch: 20 January)

Event Time Altitude Azimuth Distance (km) Brightness Sun altitude
Exits shadow 06:51:49 - 15° (NNE) 2,210 9.6 -15.1°
Reaches altitude 10° 06:52:26 10° 21° (NNE) 2,085 9.5 -15.1°
Maximum altitude 06:54:45 13° 50° (NE) 1,864 9.5 -14.8°
Drops below altitude 10° 06:57:05 10° 79° (E) 2,093 10.2 -14.5°
Sets 07:00:35 0° 104° (ESE) 3,009 11.6 -14.1°
